全球星 M040星 (GLOBALSTAR M040)

导读 | 星芒AI

GLOBALSTAR M040 是 Globalstar 卫星通信公司运营的低轨道(LEO)卫星之一,属于其第二代卫星星座(M-CLASS)的一部分。该卫星主要用于提供移动语音和数据通信服务,支持偏远地区的用户。M040 卫星采用先进通信技术,提升了系统容量和可靠性,广泛应用于海事、航空和陆地移动通信领域。作为 Globalstar 网络的重要节点,M040 卫星增强了全球卫星通信的覆盖范围和性能。

基本信息
目录编号:
25622
目录名称:
GLOBALSTAR M040
国际标识:
1999-004B
轨道中心:
EARTH
卫星名称:
全球星 M040星
卫星全名:
全球星 M040星 (GLOBALSTAR M040)
卫星状态:
在轨 (已飞行9746 天)
发射日期:
1999-02-09 UTC
国别 :
(GLOB)
星等 :
--
轨道信息
数据来源 国际轨道数据
星历时间: 2025-10-16T09:21:41+0800
9小时前
查看轨道信息
半长轴: 7792.759km
偏心率: 0.0000132
轨道倾角: 51.993°
近地点辐角 353.472°
升交点赤经 49.720°
平近点角 177.836°
近地点: 1414.521km
远地点: 1414.727km
周期: 114.103分钟
每日圈数: 12.620192
详细信息
固有亮度:
5
最大亮度:
7.9
平衡模式:
三轴稳定
覆盖范围:
全球
运营商:
全球星公司
运营商所在国:
美国
使用方式:
暂无
卫星简介
全球星星座由48颗卫星加8颗备份星组成。这些卫星分布在8个倾角为52度的圆形轨道平面上,每个轨道平面6颗卫星,另有1 颗备用星。轨道高度约为1414km,传输时延和处理时延小于300ms,整个系统的覆盖区为南北纬70度以内的地区。该卫星仍在工作。
2D轨道图
3D轨道图
轨道高度分析图
轨道倾角分析图
轨道综合分析图
查看轨道综合分析图